Time,TemperatureF,DewpointF,PressureIn,WindDirection,WindDirectionDegrees,WindSpeedMPH,WindSpeedGustMPH,Humidity,HourlyPrecipIn,Conditions,Clouds,dailyrainin,SoftwareType,DateUTC
2015-01-24 00:13:00,24.5,22.0,29.83,WNW,292,2.0,5.0,89,0.00,,,0.00,weatherlink.com 1.10,2015-01-24 05:13:00,
2015-01-24 00:28:00,24.5,22.0,29.83,WNW,290,5.0,5.0,90,0.00,,,0.00,weatherlink.com 1.10,2015-01-24 05:28:00,
2015-01-24 00:43:00,25.1,23.0,29.82,West,261,9.0,9.0,90,0.00,,,0.00,weatherlink.com 1.10,2015-01-24 05:43:00,
2015-01-24 00:58:00,25.4,23.0,29.82,West,277,3.0,8.0,90,0.00,,,0.00,weatherlink.com 1.10,2015-01-24 05:58:00,
2015-01-24 01:14:00,25.6,23.0,29.81,West,268,2.0,8.0,90,0.00,,,0.00,weatherlink.com 1.10,2015-01-24 06:14:00,
2015-01-24 01:28:00,25.8,23.0,29.80,West,273,3.0,8.0,90,0.00,,,0.00,weatherlink.com 1.10,2015-01-24 06:28:00,
2015-01-24 01:43:00,25.8,23.0,29.80,WNW,288,1.0,7.0,90,0.00,,,0.00,weatherlink.com 1.10,2015-01-24 06:43:00,
2015-01-24 01:59:00,25.8,23.0,29.79,West,272,3.0,7.0,90,0.00,,,0.00,weatherlink.com 1.10,2015-01-24 06:59:00,
2015-01-24 02:14:00,25.5,23.0,29.78,West,274,2.0,7.0,90,0.00,,,0.00,weatherlink.com 1.10,2015-01-24 07:14:00,
2015-01-24 02:29:00,25.4,23.0,29.78,WNW,284,0.0,4.0,90,0.00,,,0.00,weatherlink.com 1.10,2015-01-24 07:29:00,
2015-01-24 02:44:00,25.5,23.0,29.78,WNW,282,1.0,4.0,90,0.00,,,0.00,weatherlink.com 1.10,2015-01-24 07:44:00,
2015-01-24 02:59:00,25.8,23.0,29.77,SW,229,4.0,6.0,90,0.00,,,0.00,weatherlink.com 1.10,2015-01-24 07:59:00,
2015-01-24 03:14:00,25.6,23.0,29.76,WSW,249,1.0,7.0,90,0.00,,,0.00,weatherlink.com 1.10,2015-01-24 08:14:00,
2015-01-24 03:29:00,25.4,23.0,29.76,WSW,249,2.0,5.0,90,0.00,,,0.00,weatherlink.com 1.10,2015-01-24 08:29:00,
2015-01-24 03:44:00,25.3,23.0,29.75,WSW,245,2.0,5.0,90,0.00,,,0.00,weatherlink.com 1.10,2015-01-24 08:44:00,
2015-01-24 03:59:00,25.1,23.0,29.75,WSW,245,4.0,4.0,91,0.00,,,0.00,weatherlink.com 1.10,2015-01-24 08:59:00,
2015-01-24 04:14:00,25.1,23.0,29.74,WSW,244,3.0,4.0,91,0.00,,,0.00,weatherlink.com 1.10,2015-01-24 09:14:00,
2015-01-24 04:29:00,25.2,23.0,29.74,WSW,244,2.0,3.0,91,0.00,,,0.00,weatherlink.com 1.10,2015-01-24 09:29:00,
2015-01-24 04:44:00,25.2,23.0,29.73,WSW,244,5.0,5.0,91,0.00,,,0.00,weatherlink.com 1.10,2015-01-24 09:44:00,
2015-01-24 04:59:00,25.4,23.0,29.73,WSW,243,2.0,7.0,91,0.00,,,0.00,weatherlink.com 1.10,2015-01-24 09:59:00,
2015-01-24 05:14:00,25.6,23.0,29.73,WSW,243,2.0,5.0,91,0.00,,,0.00,weatherlink.com 1.10,2015-01-24 10:14:00,
2015-01-24 05:30:00,25.8,24.0,29.72,WSW,240,3.0,5.0,91,0.00,,,0.00,weatherlink.com 1.10,2015-01-24 10:30:00,
2015-01-24 05:44:00,25.9,24.0,29.71,WSW,239,2.0,7.0,91,0.00,,,0.00,weatherlink.com 1.10,2015-01-24 10:44:00,
2015-01-24 05:59:00,26.0,24.0,29.71,SW,236,3.0,7.0,91,0.00,,,0.00,weatherlink.com 1.10,2015-01-24 10:59:00,
2015-01-24 06:14:00,26.1,24.0,29.71,SW,234,5.0,5.0,91,0.00,,,0.00,weatherlink.com 1.10,2015-01-24 11:14:00,
2015-01-24 06:29:00,26.2,24.0,29.70,SW,234,1.0,4.0,91,0.00,,,0.00,weatherlink.com 1.10,2015-01-24 11:29:00,
2015-01-24 06:44:00,26.4,24.0,29.70,SW,225,4.0,6.0,92,0.00,,,0.00,weatherlink.com 1.10,2015-01-24 11:44:00,
2015-01-24 06:59:00,26.6,25.0,29.70,SSW,211,1.0,5.0,92,0.00,,,0.00,weatherlink.com 1.10,2015-01-24 11:59:00,
2015-01-24 07:14:00,26.7,25.0,29.70,SSW,206,4.0,6.0,92,0.00,,,0.00,weatherlink.com 1.10,2015-01-24 12:14:00,
2015-01-24 07:29:00,26.7,25.0,29.70,SW,218,5.0,7.0,92,0.00,,,0.00,weatherlink.com 1.10,2015-01-24 12:29:00,
2015-01-24 07:44:00,26.7,25.0,29.70,SW,218,4.0,7.0,92,0.00,,,0.00,weatherlink.com 1.10,2015-01-24 12:44:00,
2015-01-24 07:59:00,26.8,25.0,29.70,SW,219,4.0,7.0,92,0.00,,,0.00,weatherlink.com 1.10,2015-01-24 12:59:00,
2015-01-24 08:15:00,26.8,25.0,29.69,SW,218,4.0,6.0,92,0.00,,,0.00,weatherlink.com 1.10,2015-01-24 13:15:00,
2015-01-24 08:29:00,26.9,25.0,29.69,SW,214,6.0,8.0,92,0.00,,,0.00,weatherlink.com 1.10,2015-01-24 13:29:00,
2015-01-24 08:44:00,27.0,25.0,29.69,WSW,244,5.0,11.0,92,0.00,,,0.00,weatherlink.com 1.10,2015-01-24 13:44:00,
2015-01-24 08:59:00,27.2,25.0,29.68,SW,222,6.0,9.0,92,0.00,,,0.00,weatherlink.com 1.10,2015-01-24 13:59:00,
2015-01-24 09:14:00,27.5,26.0,29.68,SW,221,3.0,8.0,92,0.00,,,0.00,weatherlink.com 1.10,2015-01-24 14:14:00,
2015-01-24 09:29:00,27.7,26.0,29.68,SW,229,5.0,8.0,92,0.00,,,0.00,weatherlink.com 1.10,2015-01-24 14:29:00,
2015-01-24 09:44:00,28.0,26.0,29.68,SW,231,5.0,13.0,91,0.00,,,0.00,weatherlink.com 1.10,2015-01-24 14:44:00,
2015-01-24 09:59:00,28.3,26.0,29.68,WSW,243,6.0,8.0,91,0.00,,,0.00,weatherlink.com 1.10,2015-01-24 14:59:00,
2015-01-24 10:14:00,28.5,26.0,29.68,WSW,240,5.0,10.0,91,0.00,,,0.00,weatherlink.com 1.10,2015-01-24 15:14:00,
2015-01-24 10:29:00,28.8,27.0,29.68,SW,223,7.0,10.0,91,0.00,,,0.00,weatherlink.com 1.10,2015-01-24 15:29:00,
2015-01-24 10:44:00,29.3,27.0,29.68,WSW,257,5.0,9.0,90,0.00,,,0.00,weatherlink.com 1.10,2015-01-24 15:44:00,
2015-01-24 11:00:00,29.6,27.0,29.67,WSW,255,5.0,9.0,90,0.00,,,0.00,weatherlink.com 1.10,2015-01-24 16:00:00,
2015-01-24 11:15:00,30.2,28.0,29.66,West,264,3.0,8.0,90,0.00,,,0.00,weatherlink.com 1.10,2015-01-24 16:15:00,
2015-01-24 11:30:00,30.8,28.0,29.66,West,266,2.0,9.0,90,0.00,,,0.00,weatherlink.com 1.10,2015-01-24 16:30:00,
2015-01-24 11:45:00,31.2,28.0,29.66,West,267,4.0,8.0,89,0.00,,,0.00,weatherlink.com 1.10,2015-01-24 16:45:00,
2015-01-24 12:00:00,31.5,29.0,29.65,West,271,1.0,8.0,89,0.00,,,0.00,weatherlink.com 1.10,2015-01-24 17:00:00,
2015-01-24 12:15:00,31.7,29.0,29.64,West,265,2.0,8.0,89,0.00,,,0.00,weatherlink.com 1.10,2015-01-24 17:15:00,
2015-01-24 12:30:00,32.1,29.0,29.63,West,261,3.0,7.0,89,0.00,,,0.00,weatherlink.com 1.10,2015-01-24 17:30:00,
2015-01-24 12:45:00,32.1,29.0,29.63,West,278,7.0,10.0,89,0.00,,,0.00,weatherlink.com 1.10,2015-01-24 17:45:00,
2015-01-24 13:00:00,32.3,30.0,29.62,West,269,4.0,10.0,89,0.00,,,0.00,weatherlink.com 1.10,2015-01-24 18:00:00,
2015-01-24 13:15:00,32.6,30.0,29.61,WSW,256,4.0,9.0,90,0.00,,,0.00,weatherlink.com 1.10,2015-01-24 18:15:00,
2015-01-24 13:30:00,32.8,30.0,29.60,WNW,284,4.0,9.0,89,0.00,,,0.00,weatherlink.com 1.10,2015-01-24 18:30:00,
2015-01-24 13:45:00,33.0,30.0,29.60,West,260,1.0,9.0,89,0.00,,,0.00,weatherlink.com 1.10,2015-01-24 18:45:00,
2015-01-24 14:00:00,33.3,30.0,29.60,West,269,1.0,9.0,89,0.00,,,0.00,weatherlink.com 1.10,2015-01-24 19:00:00,
2015-01-24 14:15:00,33.6,31.0,29.59,WNW,292,5.0,10.0,89,0.00,,,0.00,weatherlink.com 1.10,2015-01-24 19:15:00,
2015-01-24 14:30:00,34.0,31.0,29.59,West,278,1.0,9.0,88,0.00,,,0.00,weatherlink.com 1.10,2015-01-24 19:30:00,
2015-01-24 14:45:00,34.5,31.0,29.59,WNW,285,6.0,7.0,88,0.00,,,0.00,weatherlink.com 1.10,2015-01-24 19:45:00,
2015-01-24 15:01:00,34.9,31.0,29.59,West,280,3.0,9.0,87,0.00,,,0.00,weatherlink.com 1.10,2015-01-24 20:01:00,
2015-01-24 15:15:00,35.7,32.0,29.59,West,280,2.0,10.0,87,0.00,,,0.00,weatherlink.com 1.10,2015-01-24 20:15:00,
2015-01-24 15:30:00,36.7,33.0,29.59,WNW,294,2.0,9.0,85,0.00,,,0.00,weatherlink.com 1.10,2015-01-24 20:30:00,
2015-01-24 15:45:00,36.6,33.0,29.59,WNW,296,5.0,8.0,85,0.00,,,0.00,weatherlink.com 1.10,2015-01-24 20:45:00,
2015-01-24 16:01:00,36.6,33.0,29.60,WNW,294,4.0,8.0,85,0.00,,,0.00,weatherlink.com 1.10,2015-01-24 21:01:00,
2015-01-24 16:15:00,36.8,33.0,29.60,WNW,283,3.0,7.0,85,0.00,,,0.00,weatherlink.com 1.10,2015-01-24 21:15:00,
2015-01-24 16:30:00,36.9,33.0,29.61,WNW,297,2.0,12.0,84,0.00,,,0.00,weatherlink.com 1.10,2015-01-24 21:30:00,
2015-01-24 16:45:00,36.8,32.0,29.61,WNW,284,4.0,9.0,84,0.00,,,0.00,weatherlink.com 1.10,2015-01-24 21:45:00,
2015-01-24 17:01:00,36.6,32.0,29.60,WNW,299,4.0,10.0,84,0.00,,,0.00,weatherlink.com 1.10,2015-01-24 22:01:00,
2015-01-24 17:16:00,36.5,32.0,29.61,West,274,4.0,9.0,84,0.00,,,0.00,weatherlink.com 1.10,2015-01-24 22:16:00,
2015-01-24 17:31:00,36.3,32.0,29.61,WSW,247,2.0,7.0,85,0.00,,,0.00,weatherlink.com 1.10,2015-01-24 22:31:00,
2015-01-24 17:46:00,36.1,32.0,29.62,West,277,2.0,7.0,85,0.00,,,0.00,weatherlink.com 1.10,2015-01-24 22:46:00,
2015-01-24 18:01:00,36.0,32.0,29.62,West,277,4.0,5.0,85,0.00,,,0.00,weatherlink.com 1.10,2015-01-24 23:01:00,
2015-01-24 18:16:00,36.0,32.0,29.63,West,273,0.0,6.0,86,0.00,,,0.00,weatherlink.com 1.10,2015-01-24 23:16:00,
2015-01-24 18:31:00,36.0,32.0,29.63,WNW,284,4.0,8.0,86,0.00,,,0.00,weatherlink.com 1.10,2015-01-24 23:31:00,
2015-01-24 18:46:00,36.0,32.0,29.63,WSW,258,3.0,8.0,86,0.00,,,0.00,weatherlink.com 1.10,2015-01-24 23:46:00,
2015-01-24 19:01:00,36.0,32.0,29.64,West,266,2.0,8.0,86,0.00,,,0.00,weatherlink.com 1.10,2015-01-25 00:01:00,
2015-01-24 19:16:00,35.8,32.0,29.64,West,265,3.0,6.0,86,0.00,,,0.00,weatherlink.com 1.10,2015-01-25 00:16:00,
2015-01-24 19:32:00,35.7,32.0,29.65,West,271,1.0,7.0,87,0.00,,,0.00,weatherlink.com 1.10,2015-01-25 00:32:00,
2015-01-24 19:46:00,35.7,32.0,29.66,West,281,3.0,8.0,87,0.00,,,0.00,weatherlink.com 1.10,2015-01-25 00:46:00,
2015-01-24 20:01:00,35.9,32.0,29.66,West,275,3.0,8.0,87,0.00,,,0.00,weatherlink.com 1.10,2015-01-25 01:01:00,
2015-01-24 20:16:00,35.8,32.0,29.66,WNW,283,2.0,8.0,87,0.00,,,0.00,weatherlink.com 1.10,2015-01-25 01:16:00,
2015-01-24 20:31:00,35.8,33.0,29.67,West,277,2.0,9.0,88,0.00,,,0.00,weatherlink.com 1.10,2015-01-25 01:31:00,
2015-01-24 20:46:00,35.9,33.0,29.68,West,277,3.0,7.0,88,0.01,,,0.01,weatherlink.com 1.10,2015-01-25 01:46:00,
2015-01-24 21:01:00,35.8,33.0,29.67,WNW,290,3.0,8.0,89,0.01,,,0.01,weatherlink.com 1.10,2015-01-25 02:01:00,
2015-01-24 21:16:00,35.6,33.0,29.68,WNW,286,2.0,6.0,90,0.01,,,0.01,weatherlink.com 1.10,2015-01-25 02:16:00,
2015-01-24 21:31:00,35.4,33.0,29.68,WNW,283,4.0,6.0,91,0.01,,,0.01,weatherlink.com 1.10,2015-01-25 02:31:00,
2015-01-24 21:46:00,35.3,33.0,29.68,West,273,1.0,4.0,92,0.00,,,0.01,weatherlink.com 1.10,2015-01-25 02:46:00,
2015-01-24 22:01:00,35.1,33.0,29.68,West,270,3.0,6.0,92,0.00,,,0.01,weatherlink.com 1.10,2015-01-25 03:01:00,
2015-01-24 22:16:00,34.9,33.0,29.68,West,281,6.0,7.0,93,0.00,,,0.01,weatherlink.com 1.10,2015-01-25 03:16:00,
2015-01-24 22:46:00,34.4,33.0,29.68,West,279,1.0,4.0,94,0.00,,,0.01,weatherlink.com 1.10,2015-01-25 03:46:00,